Other Public Products
Issued by NWS Grand Forks, ND

Home | Current Version | Previous Version | Text Only | Print | Product List | Glossary On
Versions: 1 2 3 4 5 6 7 8 9 10 11 12 13 14 15 16 17 18 19 20 21 22 23 24 25 26 27 28 29 30 31 32 33 34 35 36 37 38 39 40 41 42 43 44 45 46 47 48 49 50
000
FPUS83 KFGF 300610
OPUFGF
PRAIRIE TO PINES WEATHER ROUNDUP
NATIONAL WEATHER SERVICE EASTERN NORTH DAKOTA/GRAND FORKS ND
100 AM CDT THU JUL 30 2015

 **SATELLITE DATA USED TO AUGMENT SKY COVER AT AUTOMATED STATIONS**
 *****  WEATHER ACROSS EASTERN NORTH DAKOTA  *****

CITY           SKY/WX    TMP DP  RH WIND       PRES   REMARKS
GRAND FORKS    CLEAR     64  57  78 W8        29.92S
6HR MIN TEMP:  63; 6HR MAX TEMP:  80;

GRAND FORKS AF CLEAR     65  57  76 W8        29.94R
GRAND CITY NWS   N/A     64 N/A N/A NW5         N/A
BUXTON         NOT AVBL
DEVILS LAKE    CLEAR     64  54  68 W10       29.98R
6HR MIN TEMP:  64; 6HR MAX TEMP:  79;

FARGO          CLEAR     66  57  72 W12       29.97R
6HR MIN TEMP:  66; 6HR MAX TEMP:  80;

WAHPETON ARPT  CLEAR     59  54  82 W5        30.00S
$$

 *****  WEATHER ACROSS CENTRAL AND WESTERN NORTH DAKOTA  *****

CITY           SKY/WX    TMP DP  RH WIND       PRES   REMARKS
JAMESTOWN      CLEAR     64  53  67 W9        30.03R
6HR MIN TEMP:  64; 6HR MAX TEMP:  78;

BISMARCK       CLEAR     55  50  83 CALM      30.10R
6HR MIN TEMP:  54; 6HR MAX TEMP:  82;

MINOT          CLEAR     60  52  74 SW9       30.03F
6HR MIN TEMP:  60; 6HR MAX TEMP:  80;

MINOT AFB      CLEAR     58  56  95 W9        30.02S
6HR MIN TEMP:  58; 6HR MAX TEMP:  81;

GARRISON         N/A     61  50  67 W8        30.07S
6HR MIN TEMP:  59; 6HR MAX TEMP:  78;

WILLISTON      PTCLDY    59  52  77 SW5       30.08S
6HR MIN TEMP:  58; 6HR MAX TEMP:  82;

DICKINSON      CLEAR     53  46  77 S5        30.13S
6HR MIN TEMP:  52; 6HR MAX TEMP:  79;

HETTINGER      CLEAR     52  46  80 CALM      30.18R
6HR MIN TEMP:  51; 6HR MAX TEMP:  80;

$$

 *****  OTHER OBSERVATIONS NORTHEAST NORTH DAKOTA  *****

CITY           SKY/WX    TMP DP  RH WIND       PRES   REMARKS
WALHALLA       FAIR      64  59  82 MISG      29.91S
LANGDON        FAIR      59  57  94 W8        29.96S
CAVALIER       FAIR      64  57  77 W9        29.91R
GRAFTON        FAIR      64  61  88 W9        29.92S
CANDO          NOT AVBL
FORT TOTTEN      N/A     64  55  73 W3        29.95S
ROLLA          FAIR      61  55  82 W10       30.00S
RUGBY          NOT AVBL
 ***** THE ABOVE OBSERVATIONS ARE NON NWS ARE NOT QUALITY
        CONTROLLED AND MAY MIS-REPORT RAIN FOR SNOW...
$$

 *****  OTHER OBSERVATIONS SOUTHEAST NORTH DAKOTA *****

CITY           SKY/WX    TMP DP  RH WIND       PRES   REMARKS
COOPERSTOWN    NOT AVBL
VALLEY CITY    FAIR      64  55  72 W15       30.02R
OAKES            N/A     59  55  88 SW6       30.04S
GWINNER        FAIR      61  55  82 SW8       30.03S
BUFFALO        NOT AVBL
WYNDMERE       NOT AVBL
 ***** THE ABOVE OBSERVATIONS ARE NON NWS ARE NOT QUALITY
       CONTROLLED AND MAY MIS-REPORT RAIN FOR SNOW...
$$

  *****  WEATHER ACROSS NORTHERN MINNESOTA  *****

CITY           SKY/WX    TMP DP  RH WIND       PRES   REMARKS
FLAG ISLAND    PTCLDY    66  57  72 NW16G22   29.83R
WARROAD        CLEAR     61  55  82 W7        29.88R
ROSEAU         CLEAR     63  55  77 W7        29.88R
HALLOCK        CLEAR     61  57  88 W5        29.89S
THF RVR FALLS  CLEAR     63  57  82 W9        29.92S
6HR MIN TEMP:  63; 6HR MAX TEMP:  75;

HALSTAD        NOT AVBL
FOSSTON        CLEAR     57  55  94 CALM      29.95R
BAUDETTE       CLEAR     66  54  65 W9        29.85R
6HR MIN TEMP:  62; 6HR MAX TEMP:  72;

WASKISH        CLEAR     68  57  68 W15G22    29.88R
CROOKSTON      CLEAR     63  57  82 W8        29.93S
$$
  *****  WEATHER ACROSS CENTRAL AND WEST MINNESOTA  *****

CITY           SKY/WX    TMP DP  RH WIND       PRES   REMARKS
BEMIDJI        CLEAR     63  56  78 W6        29.92S
PARK RAPIDS    CLEAR     63  55  75 W9        29.96R
6HR MIN TEMP:  62; 6HR MAX TEMP:  77;

WADENA         CLEAR     64  55  72 SW7       29.98R
DETROIT LAKES  CLEAR     68  55  64 W7        29.99R
MOORHEAD       CLEAR     63  57  82 W7        29.98R
FERGUS FALLS   CLEAR     61  55  82 W6        30.00R
ELBOW LAKE     FAIR      62  55  78 W8        30.01R
MORRIS MN      CLEAR     63  55  77 W6        30.02R
STAPLES        CLEAR     64  55  72 W6        29.98R
WHEATON        CLEAR     63  55  77 SW8       30.04R
$$
  *****  WEATHER ELSEWHERE ACROSS MINNESOTA  *****

CITY           SKY/WX    TMP DP  RH WIND       PRES   REMARKS
DULUTH         PTCLDY    62  54  74 W12       29.88R
6HR MIN TEMP:  61; 6HR MAX TEMP:  76;

INTRNTL FALLS  CLEAR     62  53  72 W8        29.82R
6HR MIN TEMP:  62; 6HR MAX TEMP:  71; 6HR PCP:  0.01;

ELY            PTCLDY    64  52  63 W13G18    29.81R
CLOQUET        CLEAR     66  52  59 W10       29.90S
BRAINERD       CLEAR     67  56  67 W9        29.96R
6HR MIN TEMP:  67; 6HR MAX TEMP:  76;

HIBBING        PTCLDY    63  53  70 W6        29.87R
6HR MIN TEMP:  63; 6HR MAX TEMP:  75;

ALEXANDRIA     CLEAR     65  55  70 W8        30.03R
6HR MIN TEMP:  65; 6HR MAX TEMP:  78;

SAINT CLOUD    CLEAR     65  55  70 W9        29.99R
6HR MIN TEMP:  65; 6HR MAX TEMP:  80;

MINNEAPOLIS    CLEAR     69  56  62 SW6       30.01R
6HR MIN TEMP:  69; 6HR MAX TEMP:  81;

$$

  *****  WEATHER ACROSS SOUTH DAKOTA  *****

CITY           SKY/WX    TMP DP  RH WIND       PRES   REMARKS
SIOUX FALLS    PTCLDY    63  58  83 SW5       30.12R
6HR MIN TEMP:  62; 6HR MAX TEMP:  82;

BROOKINGS      CLEAR     61  54  77 CALM      30.12S
WATERTOWN      CLEAR     63  52  67 W9        30.09S
6HR MIN TEMP:  61; 6HR MAX TEMP:  79;

HURON          CLEAR     65  56  72 CALM      30.09S
6HR MIN TEMP:  64; 6HR MAX TEMP:  83;

SISSETON         N/A     66  52  60 W9        30.03R
ABERDEEN       CLEAR     58  54  86 SW7       30.07R
6HR MIN TEMP:  57; 6HR MAX TEMP:  83;

MITCHELL       CLEAR     64  57  78 SW5       30.11S
PIERRE         CLEAR     67  48  50 NW3       30.11R
6HR MIN TEMP:  61; 6HR MAX TEMP:  86;

MOBRIDGE       CLEAR     60  58  92 CALM      30.10R
RAPID CITY     CLEAR     57  49  74 NW6       30.21R
6HR MIN TEMP:  57; 6HR MAX TEMP:  83;

$$

  *****  SOME WEATHER IN NEARBY STATES *****

CITY           SKY/WX    TMP DP  RH WIND       PRES   REMARKS
GLASGOW MT     PTCLDY    65  48  54 NW21G28   30.12R
6HR MIN TEMP:  65; 6HR MAX TEMP:  83;

GREAT FALLS MT CLEAR     59  44  57 S8        30.20R
6HR MIN TEMP:  58; 6HR MAX TEMP:  82;

CHEYENNE WY    CLEAR     64  46  52 S8        30.36R
6HR MIN TEMP:  64; 6HR MAX TEMP:  79;

SCOTTSBLUFF NE CLOUDY    70  49  47 NE8       30.25R THUNDER
6HR MIN TEMP:  67; 6HR MAX TEMP:  86;

OMAHA NE       CLEAR     69  62  78 SE5       30.16S
6HR MIN TEMP:  68; 6HR MAX TEMP:  82;

DES MOINES IA  CLEAR     68  61  78 W5        30.13R
6HR MIN TEMP:  68; 6HR MAX TEMP:  83;

DAVENPORT IA   CLEAR     64  60  87 W6        30.09S
6HR MIN TEMP:  64; 6HR MAX TEMP:  79;

CHICAGO IL     CLEAR     70  56  61 W8        30.02S
6HR MIN TEMP:  70; 6HR MAX TEMP:  82;

EAU CLAIRE WI  CLEAR     65  55  70 SW8       29.97R
6HR MIN TEMP:  64; 6HR MAX TEMP:  79;

LA CROSSE WI   CLEAR     73  54  51 NW9       30.01R
6HR MIN TEMP:  73; 6HR MAX TEMP:  82;

$$

  *****  SOME NATIONAL WEATHER *****

CITY           SKY/WX    TMP DP  RH WIND       PRES   REMARKS
LA GUARDIA NY  PTCLDY    82  71  69 SW10      29.92S
6HR MIN TEMP:  82; 6HR MAX TEMP:  88;



USA.gov is the U.S. government's official web portal to all federal, state and local government web resources and services.